Regional Weather Roundup
Issued by NWS

Home | Current Version | Previous Version | Graphics & Text | Print | Product List | Glossary On
Versions: 1 2 3 4 5 6 7 8 9 10 11 12 13 14 15 16 17 18 19 20 21 22 23 24 25 26 27 28 29 30 31 32 33 34 35 36 37 38 39 40 41 42 43 44 45 46 47 48 49 50
658
ASUS43 KOAX 080402
RWRNE

WEATHER ROUNDUP FOR NEBRASKA
NATIONAL WEATHER SERVICE OMAHA NE
1000 PM CST WED DEC 07 2016

NOTES: SATELLITE DATA IS BEING USED TO AUGMENT CLOUD COVER ABOVE
       12000 FEET.
       "FAIR" INDICATES FEW OR NO CLOUDS BELOW 12,000 FEET WITH NO
       SIGNIFICANT WEATHER AND/OR OBSTRUCTIONS TO VISIBILITY.

  * THESE STATIONS DO NOT REPORT WEATHER SUCH AS RAIN...SNOW OR FOG.

NEZ001>004-019>022-054>056-080500-
NEBRASKA PANHANDLE

CITY           SKY/WX    TMP DP  RH WIND       PRES   REMARKS
SCOTTSBLUFF    CLEAR     -2  -8  76 NW7       30.46R WCI -15
ALLIANCE       CLEAR      1  -6  72 NW14      30.41R WCI -17
CHADRON        CLEAR      4  -5  66 NW10G21   30.49R WCI -11
KIMBALL        CLOUDY    -4  -8  84 NW8       30.38R WCI -19
SIDNEY         CLEAR     -1  -7  75 NW13      30.41R WCI -19
$$

NEZ057>060-069>072-079>082-080500-
SOUTHWEST NEBRASKA

CITY           SKY/WX    TMP DP  RH WIND       PRES   REMARKS
NORTH PLATTE   CLEAR      4  -1  80 NW7       30.48R WCI  -8
IMPERIAL       CLEAR      2  -4  76 W8        30.48R WCI -12
LEXINGTON      CLEAR     10   3  75 NW7       30.49R WCI  -2
MCCOOK         CLEAR      5   0  79 W9        30.51R WCI  -9
OGALLALA       CLEAR      0  -5  78 NW6       30.48R WCI -11
$$

NEZ005>010-023>029-035>040-094-080500-
NORTH CENTRAL NEBRASKA

CITY           SKY/WX    TMP DP  RH WIND       PRES   REMARKS
VALENTINE      CLEAR      7  -3  64 NW16G23   30.47R WCI -11
AINSWORTH      CLEAR      8   0  67 NW18G28   30.45R WCI -10
BROKEN BOW     CLEAR     11   1  64 NW17      30.45R WCI  -6
O`NEILL        CLEAR     11   2  66 NW18G24   30.44R WCI  -7
ORD            CLEAR     12  -1  56 NW23G33   30.46R WCI  -7
THEDFORD       CLEAR      6   0  75 W9        30.46R WCI  -8
$$

NEZ041-046>049-061>064-073>077-083>087-080500-
SOUTH CENTRAL NEBRASKA

CITY           SKY/WX    TMP DP  RH WIND       PRES   REMARKS
GRAND ISLAND   CLEAR     14   4  64 NW14      30.48R WCI  -1
AURORA         CLEAR     15   4  62 NW17      30.47R WCI  -2
HASTINGS       CLEAR     14   4  64 NW16      30.49R WCI  -2
HEBRON         CLEAR     17   7  65 NW9       30.50R WCI   5
HOLDREGE       CLEAR      9   2  72 NW8       30.48R WCI  -3
KEARNEY *      CLEAR     12   1  62 NW10      30.48S WCI  -1
YORK           CLEAR     16   5  62 NW15      30.47R WCI   1
$$

NEZ011>018-030>034-042>045-080500-
NORTHEAST NEBRASKA

CITY           SKY/WX    TMP DP  RH WIND       PRES   REMARKS
NORFOLK        CLEAR     12   1  61 NW20G28   30.41R WCI  -6
ALBION         PTCLDY    13   2  62 NW16G23   30.44S WCI  -4
BLAIR          CLEAR     17   7  65 W16G24    30.41R WCI   1
FREMONT        CLEAR     15   6  66 NW22      30.45R WCI  -2
TEKAMAH        CLEAR     16   5  62 NW23G30   30.43R WCI  -2
WAYNE          CLEAR     13   4  65 NW15G24   30.41S WCI  -2
$$

NEZ050>053-065>068-078-088>093-080500-
SOUTHEAST NEBRASKA

CITY           SKY/WX    TMP DP  RH WIND       PRES   REMARKS
LINCOLN        CLEAR     18   5  57 NW16      30.48R WCI   3
OMAHA EPPLEY   CLEAR     17   5  59 NW16      30.44R WCI   2
BEATRICE       CLEAR     18   8  64 NW10      30.47R WCI   6
FALLS CITY     CLEAR     19   9  65 NW12      30.46R WCI   7
NEBRASKA CITY  CLEAR     19   4  53 NW12G17   30.45R WCI   6
PLATTSMOUTH    CLEAR     18   3  52 NW18      30.43R WCI   2
$$

NEZ044-045-051>053-067-080500-
OMAHA AREA

CITY           SKY/WX    TMP DP  RH WIND       PRES   REMARKS
OMAHA EPPLEY   CLEAR     17   5  59 NW16      30.44R WCI   2
BLAIR          CLEAR     17   7  65 W16G24    30.41R WCI   1
FREMONT        CLEAR     15   6  66 NW22      30.45R WCI  -2
MILLARD        CLEAR     19   5  56 NW16G23   30.45R WCI   4
OFFUTT AFB     CLEAR     18   6  58 NW15      30.44R WCI   3
PLATTSMOUTH    CLEAR     18   3  52 NW18      30.43R WCI   2
WAHOO          FAIR      17   5  60 NW17G28   30.45R WCI   1
$$




USA.gov is the U.S. government's official web portal to all federal, state and local government web resources and services.